Simultaneous Nadir Overpasses (SNOs) Predictions

Prediction of SNOs between FY3D and AQUA Satellite Orbit:

Table of predicted SNOs for the next 14.0 days since TLE Epoch: 2/3/2024
Index Date (FY3D) Time (FY3D) Lat,Lon (FY3D) SZA (FY3D ) Date (AQUA) Time (AQUA) Lat,Lon (AQUA) SZA (AQUA ) Distance(km) Time Diff (sec)
1 02/04/2024 08:17:03 -79.30,-144.35 83.57 02/04/2024 08:17:57 -79.30,-144.39 83.59 0.93 54
2 02/04/2024 09:07:42 79.08, 24.62 96.11 02/04/2024 09:07:15 79.08, 24.71 96.10 1.85 27
3 02/06/2024 21:11:38 -79.24, 22.50 84.43 02/06/2024 21:12:20 -79.24, 22.43 84.43 1.49 42
4 02/06/2024 22:02:17 79.02,-168.55 95.26 02/06/2024 22:01:38 79.02,-168.51 95.26 1.17 39
5 02/09/2024 10:06:13 -79.22,-170.95 85.25 02/09/2024 10:06:42 -79.22,-170.99 85.26 0.80 29
6 02/09/2024 10:56:52 79.00, -2.02 94.43 02/09/2024 10:56:00 79.00, -1.95 94.44 1.61 52
7 02/11/2024 23:00:50 -79.24, -4.70 86.05 02/11/2024 23:01:05 -79.24, -4.65 86.06 1.14 15
8 02/11/2024 23:51:24 78.85, 165.47 93.39 02/11/2024 23:50:19 78.86, 165.33 93.42 3.18 65
9 02/14/2024 11:55:23 -79.13, 162.54 87.06 02/14/2024 11:55:24 -79.14, 162.45 87.05 2.15 1
10 02/16/2024 23:59:22 79.42, 159.32 92.51 02/17/2024 00:00:29 79.41, 159.45 92.47 3.03 67



Historial Predications of SNOs between FY3D and AQUA
